Location: Cruquius
(52.3348°N, 4.6319°E)
Time: 20:43:24
(UTC+00:00)

Cosmos 2151 Rocket - Pass Details

Date: 12 May 2021
Orbit: 616 x 643 km, 82.5° (Epoch: 21 June)

Event Time Altitude Azimuth Distance (km) Brightness Sun altitude
Rises 23:36:54 0° 352° (N) 2,965 8.7 -19.3°
Reaches altitude 10° 23:39:14 10° 358° (N) 2,048 7.5 -19.3°
Maximum altitude 23:43:39 49° 74° (ENE) 834 4.3 -19.3°
Enters shadow 23:45:33 30° 131° (SE) 1,158 4.6 -19.3°
